Regional Weather Roundup
Issued by NWS Jackson, KY

Home | Current Version | Previous Version | Text Only | Print | Product List | Glossary Off
Versions: 1 2 3 4 5 6 7 8 9 10 11 12 13 14 15 16 17 18 19 20 21 22 23 24 25 26 27 28 29 30 31 32 33 34 35 36 37 38 39 40 41 42 43 44 45 46 47 48 49 50

000
ASUS43 KJKL 181810
RWRJKL

EAST KENTUCKY HOURLY WEATHER ROUNDUP
NATIONAL WEATHER SERVICE JACKSON KY
200 PM EDT FRI APR 18 2014

NOTE: "FAIR" INDICATES FEW OR NO CLOUDS BELOW 12,000 FEET WITH
NO SIGNIFICANT WEATHER AND/OR OBSTRUCTIONS TO VISIBILITY.

* THESE REPORTS ARE NOT UNDER NWS QUALITY CONTROL AND MAY NOT
  REPORT WEATHER SUCH AS PRECIPITATION AND FOG.

KYZ079-080-083-085-087-088-110-112-115-119-120-181900
...EASTERN KENTUCKY...

CITY           SKY/WX    TMP DP  RH WIND       PRES   REMARKS
JACKSON        CLOUDY    66  34  30 VRB3      30.30F
6HR MIN TEMP:  52; 6HR MAX TEMP:  69;

LONDON         CLOUDY    65  38  36 CALM      30.30F
6HR MIN TEMP:  49; 6HR MAX TEMP:  66;

SOMERSET*      PTSUNNY   64  39  39 CALM      30.31F
MONTICELLO*    CLOUDY    66  44  45 VRB5      30.31F
6HR MIN TEMP:  49; 6HR MAX TEMP: 112;

WILLIAMSBURG*  SUNNY     64  39  39 CALM      30.30
MIDDLESBORO*   CLOUDY    63  35  35 CALM      30.30F
6HR MIN TEMP:  44; 6HR MAX TEMP:  64;

HARLAN APT*    CLOUDY    64  34  32 CALM      30.29F
BLACK MTN*       N/A     54  39  58 N3          N/A
PIKEVILLE APT* SUNNY     64  37  36 CALM      30.29F
BIG SANDY*     MOCLDY    69  39  34 SE3       30.29F
6HR MIN TEMP:  52; 6HR MAX TEMP:  69;

MOREHEAD APT*  PTCLDY    64  37  36 W5        30.31F
$$

KYZ035-036-041-042-044-050-067-078-099-181900
...CENTRAL KENTUCKY...

CITY           SKY/WX    TMP DP  RH WIND       PRES   REMARKS
MT STERLING*   PTSUNNY   68  41  37 NW6       30.31F
FLEMING/MASON* SUNNY     68  37  32 W6        30.29F
DANVILLE*      CLOUDY    64  45  48 CALM      30.31F
LEXINGTON      PTSUNNY   68  39  34 S6        30.29F
6HR MIN TEMP:  52; 6HR MAX TEMP:  69;

FRANKFORT      PTSUNNY   67  39  35 VRB5      30.28F
6HR MIN TEMP:  43; 6HR MAX TEMP:  67;

$$

KYZ091>093-OHZ055-061-077-WVZ005-015-034-035-042-181900
...SOUTHERN OHIO/WEST VIRGINIA...

CITY           SKY/WX    TMP DP  RH WIND       PRES   REMARKS
COVINGTON      PTSUNNY   67  34  29 N6        30.28F
COLUMBUS       PTSUNNY   67  35  30 SW7       30.27F
DAYTON         PTSUNNY   67  38  34 VRB5      30.28F
WILMINGTON     PTSUNNY   66  36  32 W9        30.28S
HUNTINGTON     PTSUNNY   69  37  30 CALM      30.27F
CHARLESTON     MOSUNNY   70  37  29 SW9       30.27F
PINEVILLE*     CLOUDY    65  37  35 MISG      30.35F
BECKLEY        CLOUDY    60  28  29 CALM      30.31F
BLUEFIELD      CLOUDY    61  29  29 CALM      30.32F
$$

VAZ002-007-008-TNZ017-027-036-066-071-181900
...SOUTHWEST VIRGINIA/EAST TENNESSEE...

CITY           SKY/WX    TMP DP  RH WIND       PRES   REMARKS
WISE*          CLOUDY    59  32  36 CALM      30.33F
ABINGDON*      CLOUDY    58  30  34 CALM      30.32F
BRISTOL        CLOUDY    58  31  35 CALM      30.32F
KNOXVILLE      CLOUDY    60  38  43 NE6       30.28F
OAK RIDGE      CLOUDY    62  36  37 E5        30.31F
CROSSVILLE     CLOUDY    60  35  39 E6        30.30F
NASHVILLE      CLOUDY    67  43  41 CALM      30.28F
$$

...KEY TO REMARKS...
VSB - VISIBILITY IN MILES
WCI - WIND CHILL INDEX
HX  - HEAT INDEX

$$



USA.gov is the U.S. government's official web portal to all federal, state and local government web resources and services.